Simultaneous Nadir Overpasses (SNOs) Predictions

Prediction of SNOs between LANDSAT-8 and METOP-A Satellite Orbit:

Table of predicted SNOs for the next 14.0 days since TLE Epoch: 7/12/2014
Index Date (LANDSAT-8) Time (LANDSAT-8) Lat,Lon (LANDSAT-8) SZA (LANDSAT-8 ) Date (METOP-A) Time (METOP-A) Lat,Lon (METOP-A) SZA (METOP-A ) Distance(km) Time Diff (sec)
1 07/12/2014 09:53:26 81.09, 71.13 61.13 07/12/2014 09:52:39 81.09, 70.96 61.09 3.02 47
2 07/12/2014 10:42:52 -81.11,-120.89 118.82 07/12/2014 10:43:18 -81.11,-120.97 118.82 1.30 26
3 07/15/2014 05:27:42 81.08, 137.47 61.52 07/15/2014 05:27:04 81.09, 137.36 61.49 1.89 38
4 07/15/2014 06:17:08 -81.11, -54.53 118.43 07/15/2014 06:17:43 -81.11, -54.52 118.41 0.64 35
5 07/18/2014 01:01:57 81.09,-155.96 62.00 07/18/2014 01:01:28 81.10,-155.91 61.99 0.96 29
6
